Weather History for Bierset, Belgium

Change the Weather History Date:

Monday, January 16, 2012

  Actual Average Record
Temperature  
Mean Temperature 32 °F -  
Max Temperature 37 °F 41 °F 51 °F (2011)
Min Temperature 26 °F 33 °F 15 °F (2013)
Degree Days  
Heating Degree Days 34    
Moisture  
Dew Point 24 °F    
Average Humidity 71    
Maximum Humidity 86    
Minimum Humidity 56    
Precipitation  
Precipitation 0.00 in - - ()
Sea Level Pressure  
Sea Level Pressure 30.29 in    
Wind  
Wind Speed 4 mph ()    
Max Wind Speed 7 mph    
Max Gust Speed 24 mph    
Visibility 10.8 miles    
Events      
Averages and records for this station are not official NWS values.
T = Trace of Precipitation, MM = Missing Value Source: Averaged Metar Reports

Daily Weather History Graph

Daily Weather History Graph

Search for Another Location

Airport:

Trip Planner

Search our weather history database for the weather conditions in past years. The results will help you decide how hot, cold, wet, or windy it might be!

Date:

Astronomy

Jan. 16, 2012 Rise Set
Actual Time 8:33 AM CET 5:02 PM CET
Civil Twilight 7:55 AM CET 5:40 PM CET
Nautical Twilight 7:14 AM CET 6:21 PM CET
Astronomical Twilight 6:35 AM CET 7:00 PM CET
Moon 1:07 AM CET (1/16) 11:19 AM CET (1/16)
Length of Visible Light 9h 44m
Length of Day
8h 29m
Waning Gibbous, 49% of the Moon is Illuminated
Jan 16
Waning Gibbous
Jan 23
New
Jan 31
First Quarter
Feb 7
Full
Feb 14
Last Quarter

Hourly Weather History & Observations

Time (CET) Temp. Windchill Dew Point Humidity Pressure Visibility Wind Dir Wind Speed Gust Speed Precip Events Conditions
12:20 AM 30.2 °F 26.7 °F 24.8 °F 80% 30.24 in - SE 3.5 mph - N/A   Clear
12:50 AM 30.2 °F 24.3 °F 23.0 °F 75% 30.24 in - Variable 5.8 mph - N/A   Clear
1:00 AM 30 °F - 24 °F 69% 30.30 in 9 mi 4.5 mph - -   Clear
1:20 AM 30.2 °F 25.4 °F 23.0 °F 75% 30.24 in - East 4.6 mph - N/A   Clear
1:50 AM 30.2 °F 25.4 °F 23.0 °F 75% 30.24 in - East 4.6 mph - N/A   Clear
2:20 AM 30.2 °F 26.7 °F 23.0 °F 75% 30.24 in - ENE 3.5 mph - N/A   Clear
2:50 AM 30.2 °F 24.3 °F 21.2 °F 69% 30.24 in - East 5.8 mph - N/A   Clear
3:20 AM 28.4 °F 23.3 °F 21.2 °F 74% 30.24 in - East 4.6 mph - N/A   Clear
3:50 AM 28.4 °F 24.6 °F 21.2 °F 74% 30.24 in - ESE 3.5 mph - N/A   Clear
4:00 AM 29 °F - 21 °F 62% 30.29 in 12 mi ESE 2.2 mph - -   Clear
4:20 AM 28.4 °F 24.6 °F 21.2 °F 74% 30.24 in - ENE 3.5 mph - N/A   Clear
4:50 AM 28.4 °F 24.6 °F 21.2 °F 74% 30.24 in - East 3.5 mph - N/A   Clear
5:20 AM 28.4 °F 24.6 °F 21.2 °F 74% 30.24 in - NE 3.5 mph - N/A   Clear
5:50 AM 26.6 °F 21.2 °F 21.2 °F 80% 30.24 in - ENE 4.6 mph 16.1 mph N/A   Clear
6:20 AM 26.6 °F 22.6 °F 21.2 °F 80% 30.24 in - East 3.5 mph - N/A   Clear
6:50 AM 28.4 °F - 21.2 °F 74% 30.24 in - Variable 2.3 mph - N/A   Clear
7:00 AM 28 °F - 21 °F 66% 30.30 in 12 mi East 2.2 mph - -   Clear
7:20 AM 28.4 °F 23.3 °F 23.0 °F 80% 30.24 in - ESE 4.6 mph - N/A   Clear
7:50 AM 26.6 °F 21.2 °F 23.0 °F 86% 30.24 in - SE 4.6 mph - N/A   Clear
8:20 AM 26.6 °F - 23.0 °F 86% 30.27 in - SE 2.3 mph - N/A   Clear
8:50 AM 28.4 °F 24.6 °F 21.2 °F 74% 30.27 in - ESE 3.5 mph - N/A   Clear
9:20 AM 30.2 °F - 17.6 °F 60% 30.27 in - ESE 2.3 mph - N/A   Clear
9:50 AM 30.2 °F 25.4 °F 23.0 °F 75% 30.27 in - SE 4.6 mph - N/A   Clear
10:00 AM 30 °F - 23 °F 65% 30.33 in 11 mi SE 4.5 mph - -   Clear
10:20 AM 32.0 °F - 24.8 °F 75% 30.30 in - Variable 1.2 mph - N/A   Clear
10:50 AM 33.8 °F - 23.0 °F 65% 30.30 in - Variable 1.2 mph - N/A   Clear
11:20 AM 33.8 °F 30.8 °F 23.0 °F 65% 30.30 in - NNE 3.5 mph - N/A   Clear
11:50 AM 35.6 °F 32.8 °F 24.8 °F 65% 30.30 in - NNE 3.5 mph - N/A   Clear
12:20 PM 37.4 °F 34.9 °F 24.8 °F 60% 30.30 in - North 3.5 mph - N/A   Clear
12:50 PM 35.6 °F 32.8 °F 26.6 °F 70% 30.30 in - NNE 3.5 mph - N/A   Clear
1:00 PM 36 °F - 26 °F 56% 30.34 in 11 mi NNE 4.5 mph - -   Clear
1:20 PM 37.4 °F 33.8 °F 24.8 °F 60% 30.30 in - NNE 4.6 mph - N/A   Clear
1:50 PM 37.4 °F 32.1 °F 26.6 °F 65% 30.30 in - NNE 6.9 mph - N/A   Clear
2:20 PM 37.4 °F 32.1 °F 24.8 °F 60% 30.30 in - NE 6.9 mph - N/A   Clear
2:50 PM 37.4 °F 32.1 °F 24.8 °F 60% 30.30 in - NE 6.9 mph - N/A   Clear
3:20 PM 37.4 °F 32.8 °F 24.8 °F 60% 30.30 in - NNE 5.8 mph - N/A   Clear
3:50 PM 37.4 °F 33.8 °F 26.6 °F 65% 30.30 in - NNE 4.6 mph - N/A   Clear
4:00 PM 36 °F - 27 °F 58% 30.33 in 11 mi NNE 4.5 mph - -   Clear
4:20 PM 35.6 °F 32.8 °F 26.6 °F 70% 30.30 in - NNE 3.5 mph - N/A   Clear
4:50 PM 35.6 °F 31.7 °F 26.6 °F 70% 30.30 in - NNE 4.6 mph - N/A   Clear
5:20 PM 35.6 °F 31.7 °F 24.8 °F 65% 30.30 in - NE 4.6 mph - N/A   Clear
5:50 PM 33.8 °F - 26.6 °F 75% 30.30 in - Variable 1.2 mph - N/A   Clear
6:20 PM 33.8 °F - 26.6 °F 75% 30.30 in - Variable 2.3 mph - N/A   Clear
6:50 PM 32.0 °F 28.7 °F 24.8 °F 75% 30.30 in - NE 3.5 mph - N/A   Clear
7:00 PM 33 °F - 26 °F 65% 30.36 in 10 mi NE 4.5 mph - -   Clear
7:20 PM 33.8 °F - 24.8 °F 70% 30.33 in - East 2.3 mph - N/A   Clear
7:50 PM 33.8 °F 29.6 °F 26.6 °F 75% 30.33 in - SE 4.6 mph - N/A   Clear
8:20 PM 33.8 °F 27.7 °F 26.6 °F 75% 30.33 in - Variable 6.9 mph 24.2 mph N/A   Clear
8:50 PM 33.8 °F 27.7 °F 26.6 °F 75% 30.33 in - SSE 6.9 mph - N/A   Clear
9:20 PM 33.8 °F 29.6 °F 26.6 °F 75% 30.33 in - SSE 4.6 mph - N/A   Clear
9:50 PM 33.8 °F 27.7 °F 24.8 °F 70% 30.36 in - SSE 6.9 mph - N/A   Clear
10:00 PM 34 °F - 26 °F 61% 30.39 in 10 mi SSE 6.7 mph - -   Clear
10:20 PM 33.8 °F 27.7 °F 24.8 °F 70% 30.36 in - SSE 6.9 mph - N/A   Clear
10:50 PM 33.8 °F 29.6 °F 24.8 °F 70% 30.36 in - SSE 4.6 mph - N/A   Clear
11:20 PM 32.0 °F 27.5 °F 24.8 °F 75% 30.36 in - SSE 4.6 mph - N/A   Clear
11:50 PM 32.0 °F 26.4 °F 26.6 °F 80% 30.36 in - SE 5.8 mph - N/A   Clear